ITHETF43 Weather Reports


time (UTC)temp
F
wind
direction
speed
knots
gust
knots
rain 1hr
in
rain 24hr
in
rain mn
in
humidity
%
barometer
mb
20260510174551 52 42 3.5 10.4 0.00 0.00 0.00 57 1015.3
20260510173051 52 355 1.7 8.7 0.00 0.00 0.00 55 1015.4
20260510171551 53 340 3.5 7.8 0.00 0.00 0.00 53 1015.6
20260510170045 54 20 3.5 9.6 0.00 0.00 0.00 55 1015.7
20260510164547 54 36 4.3 8.7 0.00 0.00 0.00 56 1015.9
20260510163051 54 16 2.6 10.4 0.00 0.00 0.00 55 1015.9
20260510161545 55 5 2.6 7.8 0.00 0.00 0.00 56 1016.0
20260510160048 55 82 2.6 7.8 0.00 0.00 0.00 56 1016.2
20260510154557 55 355 3.5 8.7 0.00 0.00 0.00 53 1016.3
20260510153052 56 64 2.6 10.4 0.00 0.00 0.00 54 1016.3
20260510151548 57 360 2.6 12.2 0.00 0.00 0.00 51 1016.5
20260510150113 57 27 5.2 12.2 0.00 0.00 0.00 52 1016.7
20260510144544 58 61 3.5 10.4 0.00 0.00 0.00 52 1016.8
20260510143043 58 355 2.6 11.3 0.00 0.00 0.00 52 1016.8
20260510141549 57 154 2.6 10.4 0.00 0.00 0.00 53 1017.1
20260510140052 56 40 3.5 10.4 0.00 0.00 0.00 53 1017.4
20260510134557 56 66 3.5 8.7 0.00 0.00 0.00 55 1017.4
20260510133045 56 84 3.5 10.4 0.00 0.00 0.00 57 1017.4
20260510131549 56 109 1.7 11.3 0.00 0.00 0.00 58 1017.4
20260510130052 56 352 2.6 11.3 0.00 0.00 0.00 59 1017.7
20260510124555 57 5 4.3 12.2 0.00 0.00 0.00 58 1017.6
20260510123056 56 26 1.7 7.0 0.00 0.00 0.00 57 1017.8
20260510121552 55 77 2.6 9.6 0.00 0.00 0.00 60 1017.9
20260510120054 55 83 3.5 12.2 0.00 0.00 0.00 60 1018.1
20260510114553 55 175 2.6 12.2 0.00 0.00 0.00 61 1018.2
20260510113051 54 348 2.6 10.4 0.00 0.00 0.00 65 1018.4
20260510111553 53 332 3.5 9.6 0.00 0.00 0.00 67 1018.5
20260510110047 53 49 2.6 13.0 0.00 0.00 0.00 68 1018.6
20260510104549 53 360 2.6 7.8 0.00 0.00 0.00 68 1018.7
20260510103059 54 5 3.5 10.4 0.00 0.00 0.00 68 1018.7
20260510101544 54 74 3.5 8.7 0.00 0.00 0.00 68 1018.8
20260510100054 54 150 2.6 10.4 0.00 0.00 0.00 67 1018.8
20260510094604 54 341 3.5 10.4 0.00 0.00 0.00 70 1018.9
20260510093059 54 72 3.5 9.6 0.00 0.00 0.00 72 1018.9
20260510091550 53 0 2.6 11.3 0.00 0.00 0.00 74 1019.1
20260510090110 52 91 3.5 11.3 0.00 0.00 0.00 76 1019.1
20260510084542 51 34 2.6 7.8 0.00 0.00 0.00 79 1019.2
20260510083055 51 12 1.7 8.7 0.00 0.00 0.00 79 1019.3
20260510081546 51 105 2.6 7.0 0.00 0.00 0.00 79 1019.3
20260510080046 51 5 1.7 7.0 0.00 0.00 0.00 80 1019.3
20260510074551 51 5 1.7 6.1 0.00 0.00 0.00 80 1019.4
20260510073056 51 255 1.7 6.1 0.00 0.00 0.00 80 1019.3
20260510071543 51 18 1.7 7.8 0.00 0.00 0.00 80 1019.2
20260510070051 51 80 1.7 10.4 0.00 0.00 0.00 80 1019.1
20260510064551 50 70 2.6 9.6 0.00 0.00 0.00 82 1019.0
20260510063044 50 30 0.9 9.6 0.00 0.00 0.00 84 1018.8
20260510061543 50 43 1.7 7.8 0.00 0.00 0.00 87 1018.7
20260510060045 49 14 2.6 8.7 0.00 0.00 0.00 89 1018.6
20260510054550 49 75 2.6 6.1 0.00 0.00 0.00 91 1018.4
20260510053050 48 12 1.7 5.2 0.00 0.00 0.00 91 1018.4
20260510051601 47 13 1.7 5.2 0.00 0.00 0.00 91 1018.4
20260510050054 47 47 1.7 4.3 0.00 0.00 0.00 91 1018.6
20260510044602 47 36 1.7 3.5 0.00 0.00 0.00 90 1018.6
20260510043045 47 12 0.9 3.5 0.00 0.00 0.00 90 1018.8
20260510041551 47 59 0.0 2.6 0.00 0.00 0.00 90 1018.8
20260510040051 47 56 0.0 4.3 0.00 0.00 0.00 90 1018.7
20260510034546 47 49 0.9 5.2 0.00 0.00 0.00 90 1018.7
20260510033043 47 30 0.9 2.6 0.00 0.00 0.00 90 1018.9
20260510031553 47 36 0.9 3.5 0.00 0.00 0.00 90 1019.1
20260510030052 47 11 1.7 3.5 0.00 0.00 0.00 89 1018.9
20260510024553 47 355 0.9 3.5 0.00 0.00 0.00 89 1019.2
20260510023049 48 25 0.9 5.2 0.00 0.00 0.00 89 1019.2
20260510021544 48 24 0.9 4.3 0.00 0.00 0.00 89 1019.2
20260510020044 48 54 2.6 7.0 0.00 0.00 0.00 89 1019.2
20260510014556 48 32 1.7 4.3 0.00 0.00 0.00 88 1019.3
20260510013052 49 36 1.7 6.1 0.00 0.00 0.00 87 1019.4
20260510011551 49 22 1.7 5.2 0.00 0.00 0.00 87 1019.4
20260510010045 50 38 1.7 4.3 0.00 0.00 0.00 87 1019.3
20260510004556 50 360 0.9 3.5 0.00 0.00 0.00 87 1019.3
20260510003057 50 51 0.9 7.0 0.00 0.00 0.00 87 1019.3
20260510001551 50 38 1.7 6.1 0.00 0.00 0.00 87 1019.2
20260510000051 50 59 1.7 4.3 0.00 0.00 0.00 87 1019.2
20260509234553 50 49 0.9 5.2 0.00 0.00 0.00 87 1019.5
20260509233054 50 360 1.7 3.5 0.00 0.00 0.00 87 1019.8
20260509231545 51 22 0.9 2.6 0.00 0.00 0.00 87 1019.7
20260509230047 51 0 0.0 2.6 0.00 0.00 0.00 87 1019.7
20260509224552 51 355 0.9 3.5 0.00 0.00 0.00 87 1019.5
20260509223052 51 55 0.9 4.3 0.00 0.00 0.00 86 1019.4
20260509221542 51 0 1.7 3.5 0.00 0.00 0.00 85 1019.3
20260509220050 51 78 0.9 6.1 0.00 0.00 0.00 84 1019.3
20260509214600 52 37 0.9 5.2 0.00 0.00 0.00 82 1019.2
20260509213119 53 49 0.9 5.2 0.00 0.00 0.00 80 1019.1
20260509211554 53 18 0.0 7.8 0.00 0.00 0.00 78 1019.1
20260509204549 54 33 0.9 5.2 0.00 0.00 0.00 72 1018.9
20260509203053 55 84 1.7 4.3 0.00 0.00 0.00 67 1018.9
20260509201546 56 57 0.9 4.3 0.00 0.00 0.00 65 1018.9
20260509194553 58 30 0.9 4.3 0.00 0.00 0.00 56 1018.7
20260509193053 59 51 0.9 2.6 0.00 0.00 0.00 52 1018.5
20260509191543 59 74 0.9 3.5 0.00 0.00 0.00 50 1018.2
20260509190045 60 67 0.9 7.8 0.00 0.00 0.00 48 1018.0
20260509184555 61 46 1.7 6.1 0.00 0.00 0.00 46 1018.0
20260509183051 62 34 1.7 7.0 0.00 0.00 0.00 43 1017.9
20260509181558 62 120 0.9 6.1 0.00 0.00 0.00 42 1017.9
20260509180050 63 111 2.6 7.8 0.00 0.00 0.00 40 1017.9